Time,TemperatureF,DewpointF,PressureIn,WindDirection,WindDirectionDegrees,WindSpeedMPH,WindSpeedGustMPH,Humidity,HourlyPrecipIn,Conditions,Clouds,dailyrainin,SoftwareType,DateUTC
2013-01-08 00:00:00,28.6,3.8,30.21,SW,225,6.3,8.1,34,0.00,,---,0.00,VWS V14.01,2013-01-08 05:00:00,
2013-01-08 00:02:00,28.6,3.8,30.21,SW,225,2.7,8.1,34,0.00,,---,0.00,VWS V14.01,2013-01-08 05:02:00,
2013-01-08 00:07:00,28.4,4.2,30.21,SW,225,5.4,10.1,35,0.00,,---,0.00,VWS V14.01,2013-01-08 05:07:00,
2013-01-08 00:12:00,28.2,4.1,30.21,SW,225,6.3,8.1,35,0.00,,---,0.00,VWS V14.01,2013-01-08 05:12:00,
2013-01-08 00:17:00,28.2,4.7,30.21,West,270,8.1,10.1,36,0.00,,---,0.00,VWS V14.01,2013-01-08 05:17:00,
2013-01-08 00:22:00,28.4,4.9,30.21,South,180,8.1,11.0,36,0.00,,---,0.00,VWS V14.01,2013-01-08 05:22:00,
2013-01-08 00:27:00,28.2,4.7,30.21,SW,225,6.7,11.0,36,0.00,,---,0.00,VWS V14.01,2013-01-08 05:27:00,
2013-01-08 00:32:00,28.2,4.7,30.21,South,180,4.5,8.7,36,0.00,,---,0.00,VWS V14.01,2013-01-08 05:32:00,
2013-01-08 00:37:00,28.2,4.7,30.21,WSW,248,8.1,9.2,36,0.00,,---,0.00,VWS V14.01,2013-01-08 05:37:00,
2013-01-08 00:42:00,28.2,4.1,30.21,West,270,5.8,9.6,35,0.00,,---,0.00,VWS V14.01,2013-01-08 05:42:00,
2013-01-08 00:47:00,28.2,4.1,30.21,SW,225,7.2,9.6,35,0.00,,---,0.00,VWS V14.01,2013-01-08 05:47:00,
2013-01-08 00:52:00,28.6,4.4,30.21,SSW,202,4.9,10.5,35,0.00,,---,0.00,VWS V14.01,2013-01-08 05:52:00,
2013-01-08 00:57:00,28.4,4.2,30.21,SW,225,2.7,10.5,35,0.00,,---,0.00,VWS V14.01,2013-01-08 05:57:00,
2013-01-08 01:02:00,28.2,4.1,30.21,SW,225,6.3,7.6,35,0.00,,---,0.00,VWS V14.01,2013-01-08 06:02:00,
2013-01-08 01:07:00,28.4,4.2,30.21,SW,225,7.2,10.1,35,0.00,,---,0.00,VWS V14.01,2013-01-08 06:07:00,
2013-01-08 01:12:00,28.4,4.2,30.21,SW,225,2.7,9.2,35,0.00,,---,0.00,VWS V14.01,2013-01-08 06:12:00,
2013-01-08 01:17:00,28.4,4.2,30.21,WSW,248,6.3,11.9,35,0.00,,---,0.00,VWS V14.01,2013-01-08 06:17:00,
2013-01-08 01:22:00,28.2,4.1,30.21,SW,225,5.8,7.2,35,0.00,,---,0.00,VWS V14.01,2013-01-08 06:22:00,
2013-01-08 01:27:00,28.2,4.1,30.21,SW,225,7.2,9.6,35,0.00,,---,0.00,VWS V14.01,2013-01-08 06:27:00,
2013-01-08 01:32:00,28.2,4.1,30.21,SW,225,9.6,9.6,35,0.00,,---,0.00,VWS V14.01,2013-01-08 06:32:00,
2013-01-08 01:37:00,28.2,4.1,30.21,South,180,9.6,10.5,35,0.00,,---,0.00,VWS V14.01,2013-01-08 06:37:00,
2013-01-08 01:42:00,28.2,4.1,30.21,WNW,292,2.7,8.3,35,0.00,,---,0.00,VWS V14.01,2013-01-08 06:42:00,
2013-01-08 01:47:00,28.4,4.2,30.21,SW,225,11.0,11.0,35,0.00,,---,0.00,VWS V14.01,2013-01-08 06:47:00,
2013-01-08 01:52:00,28.4,3.6,30.21,South,180,6.3,12.3,34,0.00,,---,0.00,VWS V14.01,2013-01-08 06:52:00,
2013-01-08 01:57:00,28.4,3.6,30.21,SW,225,2.7,12.3,34,0.00,,---,0.00,VWS V14.01,2013-01-08 06:57:00,
2013-01-08 02:02:00,28.4,3.6,30.21,WNW,292,8.3,9.2,34,0.00,,---,0.00,VWS V14.01,2013-01-08 07:02:00,
2013-01-08 02:07:00,28.6,3.8,30.21,SW,225,8.1,9.6,34,0.00,,---,0.00,VWS V14.01,2013-01-08 07:07:00,
2013-01-08 02:12:00,28.4,3.6,30.21,SW,225,4.5,8.7,34,0.00,,---,0.00,VWS V14.01,2013-01-08 07:12:00,
2013-01-08 02:17:00,28.6,3.1,30.21,West,270,9.6,10.1,33,0.00,,---,0.00,VWS V14.01,2013-01-08 07:17:00,
2013-01-08 02:22:00,28.6,3.1,30.21,South,180,8.7,13.2,33,0.00,,---,0.00,VWS V14.01,2013-01-08 07:22:00,
2013-01-08 02:27:00,28.6,3.1,30.21,SSW,202,3.6,13.2,33,0.00,,---,0.00,VWS V14.01,2013-01-08 07:27:00,
2013-01-08 02:32:00,28.6,3.1,30.21,SW,225,5.8,6.7,33,0.00,,---,0.00,VWS V14.01,2013-01-08 07:32:00,
2013-01-08 02:37:00,28.6,3.1,30.21,West,270,8.3,11.9,33,0.00,,---,0.00,VWS V14.01,2013-01-08 07:37:00,
2013-01-08 02:42:00,28.6,3.1,30.21,SW,225,4.9,11.0,33,0.00,,---,0.00,VWS V14.01,2013-01-08 07:42:00,
2013-01-08 02:47:00,28.4,3.6,30.21,SW,225,8.3,11.0,34,0.00,,---,0.00,VWS V14.01,2013-01-08 07:47:00,
2013-01-08 02:52:00,28.6,3.1,30.21,WSW,248,3.6,7.6,33,0.00,,---,0.00,VWS V14.01,2013-01-08 07:52:00,
2013-01-08 02:57:00,28.2,3.5,30.21,SW,225,5.4,14.1,34,0.00,,---,0.00,VWS V14.01,2013-01-08 07:57:00,
2013-01-08 03:02:00,28.2,3.5,30.21,SW,225,3.6,10.1,34,0.00,,---,0.00,VWS V14.01,2013-01-08 08:02:00,
2013-01-08 03:07:00,28.0,3.3,30.21,SE,135,6.3,14.5,34,0.00,,---,0.00,VWS V14.01,2013-01-08 08:07:00,
2013-01-08 03:12:00,28.0,3.9,30.21,SW,225,4.9,10.5,35,0.00,,---,0.00,VWS V14.01,2013-01-08 08:12:00,
2013-01-08 03:17:00,28.4,3.0,30.21,South,180,6.3,12.3,33,0.00,,---,0.00,VWS V14.01,2013-01-08 08:17:00,
2013-01-08 03:22:00,27.9,3.2,30.21,SSW,202,3.6,10.1,34,0.00,,---,0.00,VWS V14.01,2013-01-08 08:22:00,
2013-01-08 03:27:00,27.7,3.6,30.21,SSW,202,4.0,10.1,35,0.00,,---,0.00,VWS V14.01,2013-01-08 08:27:00,
2013-01-08 03:32:00,27.9,4.4,30.21,SW,225,4.0,12.3,36,0.00,,---,0.00,VWS V14.01,2013-01-08 08:32:00,
2013-01-08 03:37:00,27.9,3.8,30.21,SW,225,5.4,12.3,35,0.00,,---,0.00,VWS V14.01,2013-01-08 08:37:00,
2013-01-08 03:42:00,27.7,4.2,30.21,SW,225,7.6,8.7,36,0.00,,---,0.00,VWS V14.01,2013-01-08 08:42:00,
2013-01-08 03:47:00,27.9,4.4,30.21,SW,225,11.0,12.3,36,0.00,,---,0.00,VWS V14.01,2013-01-08 08:47:00,
2013-01-08 03:52:00,27.7,4.2,30.21,SW,225,6.3,12.3,36,0.00,,---,0.00,VWS V14.01,2013-01-08 08:52:00,
2013-01-08 03:57:00,27.7,4.2,30.21,SW,225,8.1,12.3,36,0.00,,---,0.00,VWS V14.01,2013-01-08 08:57:00,
2013-01-08 04:02:00,27.5,4.1,30.21,SSW,202,5.4,8.3,36,0.00,,---,0.00,VWS V14.01,2013-01-08 09:02:00,
2013-01-08 04:07:00,27.7,4.2,30.21,SW,225,10.5,11.4,36,0.00,,---,0.00,VWS V14.01,2013-01-08 09:07:00,
2013-01-08 04:12:00,27.5,4.7,30.21,WSW,248,4.0,9.6,37,0.00,,---,0.00,VWS V14.01,2013-01-08 09:12:00,
2013-01-08 04:17:00,27.5,4.7,30.21,West,270,3.1,10.5,37,0.00,,---,0.00,VWS V14.01,2013-01-08 09:17:00,
2013-01-08 04:22:00,27.5,4.7,30.21,SW,225,5.4,7.2,37,0.00,,---,0.00,VWS V14.01,2013-01-08 09:22:00,
2013-01-08 04:27:00,27.3,4.5,30.21,SW,225,6.3,11.9,37,0.00,,---,0.00,VWS V14.01,2013-01-08 09:27:00,
2013-01-08 04:32:00,27.3,4.5,30.21,SW,225,5.8,7.6,37,0.00,,---,0.00,VWS V14.01,2013-01-08 09:32:00,
2013-01-08 04:37:00,27.3,4.5,30.21,SW,225,6.3,10.5,37,0.00,,---,0.00,VWS V14.01,2013-01-08 09:37:00,
2013-01-08 04:42:00,27.5,4.7,30.21,SW,225,6.7,9.6,37,0.00,,---,0.00,VWS V14.01,2013-01-08 09:42:00,
2013-01-08 04:47:00,27.5,4.7,30.21,SW,225,12.3,12.3,37,0.00,,---,0.00,VWS V14.01,2013-01-08 09:47:00,
2013-01-08 04:52:00,27.5,4.7,30.21,WSW,248,5.4,9.2,37,0.00,,---,0.00,VWS V14.01,2013-01-08 09:52:00,
2013-01-08 04:57:00,27.5,4.1,30.21,SW,225,4.9,9.2,36,0.00,,---,0.00,VWS V14.01,2013-01-08 09:57:00,
2013-01-08 05:02:00,27.5,4.1,30.21,SW,225,8.3,8.3,36,0.00,,---,0.00,VWS V14.01,2013-01-08 10:02:00,
2013-01-08 05:07:00,27.7,3.6,30.21,SW,225,5.8,11.9,35,0.00,,---,0.00,VWS V14.01,2013-01-08 10:07:00,
2013-01-08 05:12:00,27.9,3.8,30.21,South,180,8.7,8.7,35,0.00,,---,0.00,VWS V14.01,2013-01-08 10:12:00,
2013-01-08 05:17:00,27.9,3.8,30.21,South,180,4.5,9.6,35,0.00,,---,0.00,VWS V14.01,2013-01-08 10:17:00,
2013-01-08 05:22:00,27.9,3.8,30.21,SW,225,9.2,9.2,35,0.00,,---,0.00,VWS V14.01,2013-01-08 10:22:00,
2013-01-08 05:27:00,27.7,3.6,30.21,SW,225,3.6,9.2,35,0.00,,---,0.00,VWS V14.01,2013-01-08 10:27:00,
2013-01-08 05:32:00,27.7,3.6,30.21,SSW,202,2.7,5.8,35,0.00,,---,0.00,VWS V14.01,2013-01-08 10:32:00,
2013-01-08 05:37:00,27.7,3.6,30.21,South,180,4.9,8.3,35,0.00,,---,0.00,VWS V14.01,2013-01-08 10:37:00,
2013-01-08 05:42:00,27.7,3.6,30.24,SW,225,5.4,7.6,35,0.00,,---,0.00,VWS V14.01,2013-01-08 10:42:00,
2013-01-08 05:47:00,27.9,3.8,30.24,WSW,248,4.0,8.1,35,0.00,,---,0.00,VWS V14.01,2013-01-08 10:47:00,
2013-01-08 05:52:00,27.9,3.2,30.24,SW,225,9.6,9.6,34,0.00,,---,0.00,VWS V14.01,2013-01-08 10:52:00,
2013-01-08 05:57:00,27.9,3.2,30.24,SW,225,6.7,9.6,34,0.00,,---,0.00,VWS V14.01,2013-01-08 10:57:00,
2013-01-08 06:02:00,27.7,3.6,30.24,SW,225,5.4,6.3,35,0.00,,---,0.00,VWS V14.01,2013-01-08 11:02:00,
2013-01-08 06:07:00,27.5,3.5,30.24,West,270,6.3,8.7,35,0.00,,---,0.00,VWS V14.01,2013-01-08 11:07:00,
2013-01-08 06:12:00,27.5,3.5,30.24,SW,225,6.3,6.3,35,0.00,,---,0.00,VWS V14.01,2013-01-08 11:12:00,
2013-01-08 06:17:00,27.5,3.5,30.24,SW,225,2.7,8.3,35,0.00,,---,0.00,VWS V14.01,2013-01-08 11:17:00,
2013-01-08 06:22:00,27.3,3.3,30.24,SW,225,4.9,8.1,35,0.00,,---,0.00,VWS V14.01,2013-01-08 11:22:00,
2013-01-08 06:27:00,27.1,3.1,30.27,SW,225,5.4,8.1,35,0.00,,---,0.00,VWS V14.01,2013-01-08 11:27:00,
2013-01-08 06:32:00,27.1,3.1,30.27,SW,225,4.0,5.4,35,0.00,,---,0.00,VWS V14.01,2013-01-08 11:32:00,
2013-01-08 06:37:00,27.3,3.3,30.27,SW,225,5.4,8.7,35,0.00,,---,0.00,VWS V14.01,2013-01-08 11:37:00,
2013-01-08 06:42:00,27.3,3.3,30.27,West,270,2.2,8.7,35,0.00,,---,0.00,VWS V14.01,2013-01-08 11:42:00,
2013-01-08 06:47:00,27.3,3.3,30.27,SSW,202,5.8,8.7,35,0.00,,---,0.00,VWS V14.01,2013-01-08 11:47:00,
2013-01-08 06:52:00,27.1,3.1,30.27,SW,225,4.0,6.3,35,0.00,,---,0.00,VWS V14.01,2013-01-08 11:52:00,
2013-01-08 06:57:00,27.3,3.3,30.27,SW,225,3.6,8.7,35,0.00,,---,0.00,VWS V14.01,2013-01-08 11:57:00,
2013-01-08 07:02:00,27.3,3.3,30.27,SW,225,2.2,6.3,35,0.00,,---,0.00,VWS V14.01,2013-01-08 12:02:00,
2013-01-08 07:07:00,27.5,3.5,30.27,SW,225,2.7,7.6,35,0.00,,---,0.00,VWS V14.01,2013-01-08 12:07:00,
2013-01-08 07:12:00,27.5,3.5,30.27,SW,225,5.8,7.2,35,0.00,,---,0.00,VWS V14.01,2013-01-08 12:12:00,
2013-01-08 07:17:00,27.5,3.5,30.27,SW,225,4.9,9.6,35,0.00,,---,0.00,VWS V14.01,2013-01-08 12:17:00,
2013-01-08 07:22:00,27.3,3.3,30.27,SW,225,4.9,8.1,35,0.00,,---,0.00,VWS V14.01,2013-01-08 12:22:00,
2013-01-08 07:27:00,27.3,3.3,30.27,SSW,202,3.6,8.1,35,0.00,,---,0.00,VWS V14.01,2013-01-08 12:27:00,
2013-01-08 07:32:00,27.3,3.3,30.27,South,180,3.1,8.1,35,0.00,,---,0.00,VWS V14.01,2013-01-08 12:32:00,
2013-01-08 07:37:00,27.5,3.5,30.27,SW,225,5.4,8.3,35,0.00,,---,0.00,VWS V14.01,2013-01-08 12:37:00,
2013-01-08 07:42:00,27.5,3.5,30.27,SW,225,8.1,8.1,35,0.00,,---,0.00,VWS V14.01,2013-01-08 12:42:00,
2013-01-08 07:47:00,27.5,3.5,30.27,SW,225,4.0,8.1,35,0.00,,---,0.00,VWS V14.01,2013-01-08 12:47:00,
2013-01-08 07:52:00,27.5,3.5,30.27,WSW,248,3.1,8.1,35,0.00,,---,0.00,VWS V14.01,2013-01-08 12:52:00,
2013-01-08 07:57:00,27.5,3.5,30.27,South,180,3.6,8.1,35,0.00,,---,0.00,VWS V14.01,2013-01-08 12:57:00,
2013-01-08 08:02:00,27.5,3.5,30.27,South,180,4.0,8.3,35,0.00,,---,0.00,VWS V14.01,2013-01-08 13:02:00,
2013-01-08 08:07:00,27.5,2.8,30.27,SSW,202,5.8,8.3,34,0.00,,---,0.00,VWS V14.01,2013-01-08 13:07:00,
2013-01-08 08:12:00,27.7,3.0,30.30,SSW,202,4.0,8.3,34,0.00,,---,0.00,VWS V14.01,2013-01-08 13:12:00,
2013-01-08 08:17:00,27.7,3.0,30.30,SW,225,3.1,10.1,34,0.00,,---,0.00,VWS V14.01,2013-01-08 13:17:00,
2013-01-08 08:22:00,27.7,3.0,30.30,SW,225,5.4,6.7,34,0.00,,---,0.00,VWS V14.01,2013-01-08 13:22:00,
2013-01-08 08:27:00,27.7,3.6,30.30,West,270,4.9,7.6,35,0.00,,---,0.00,VWS V14.01,2013-01-08 13:27:00,
2013-01-08 08:32:00,28.0,3.3,30.30,SW,225,4.9,8.7,34,0.00,,---,0.00,VWS V14.01,2013-01-08 13:32:00,
2013-01-08 08:37:00,28.4,3.6,30.30,WSW,248,6.3,9.6,34,0.00,,---,0.00,VWS V14.01,2013-01-08 13:37:00,
2013-01-08 08:42:00,28.6,3.1,30.30,SW,225,3.6,8.3,33,0.00,,---,0.00,VWS V14.01,2013-01-08 13:42:00,
2013-01-08 08:47:00,28.8,3.3,30.30,SW,225,4.9,8.3,33,0.00,,---,0.00,VWS V14.01,2013-01-08 13:47:00,
2013-01-08 08:52:00,29.1,3.0,30.30,SW,225,5.4,7.2,32,0.00,,---,0.00,VWS V14.01,2013-01-08 13:52:00,
2013-01-08 08:57:00,29.3,3.1,30.30,SW,225,2.7,8.1,32,0.00,,---,0.00,VWS V14.01,2013-01-08 13:57:00,
2013-01-08 09:02:00,29.5,3.3,30.30,SW,225,5.4,8.1,32,0.00,,---,0.00,VWS V14.01,2013-01-08 14:02:00,
2013-01-08 09:07:00,30.2,3.9,30.30,SW,225,3.6,8.3,32,0.00,,---,0.00,VWS V14.01,2013-01-08 14:07:00,
2013-01-08 09:12:00,30.6,3.5,30.30,SW,225,3.1,7.2,31,0.00,,---,0.00,VWS V14.01,2013-01-08 14:12:00,
2013-01-08 09:17:00,30.9,3.8,30.30,South,180,2.7,7.2,31,0.00,,---,0.00,VWS V14.01,2013-01-08 14:17:00,
2013-01-08 09:22:00,31.3,3.5,30.30,SSW,202,7.2,7.2,30,0.00,,---,0.00,VWS V14.01,2013-01-08 14:22:00,
2013-01-08 09:27:00,31.6,3.8,30.30,SW,225,4.0,8.7,30,0.00,,---,0.00,VWS V14.01,2013-01-08 14:27:00,
2013-01-08 09:32:00,32.0,4.1,30.30,SW,225,3.1,5.8,30,0.00,,---,0.00,VWS V14.01,2013-01-08 14:32:00,
2013-01-08 09:37:00,32.4,2.9,30.30,SW,225,5.4,8.1,28,0.00,,---,0.00,VWS V14.01,2013-01-08 14:37:00,
2013-01-08 09:42:00,32.5,3.1,30.30,SW,225,4.9,7.6,28,0.00,,---,0.00,VWS V14.01,2013-01-08 14:42:00,
2013-01-08 09:47:00,32.7,3.2,30.30,SW,225,5.4,10.1,28,0.00,,---,0.00,VWS V14.01,2013-01-08 14:47:00,
2013-01-08 09:52:00,33.1,1.1,30.30,South,180,3.1,8.7,25,0.00,,---,0.00,VWS V14.01,2013-01-08 14:52:00,
2013-01-08 09:57:00,33.3,1.2,30.30,West,270,0.0,8.7,25,0.00,,---,0.00,VWS V14.01,2013-01-08 14:57:00,
2013-01-08 10:02:00,33.8,1.7,30.30,SW,225,7.6,10.5,25,0.00,,---,0.00,VWS V14.01,2013-01-08 15:02:00,
2013-01-08 10:07:00,34.0,1.9,30.30,SW,225,2.7,10.5,25,0.00,,---,0.00,VWS V14.01,2013-01-08 15:07:00,
2013-01-08 10:12:00,34.5,2.3,30.30,West,270,0.0,7.2,25,0.00,,---,0.00,VWS V14.01,2013-01-08 15:12:00,
2013-01-08 10:17:00,34.9,2.6,30.30,WSW,248,6.3,7.2,25,0.00,,---,0.00,VWS V14.01,2013-01-08 15:17:00,
2013-01-08 10:22:00,35.4,3.1,30.30,WSW,248,5.4,5.8,25,0.00,,---,0.00,VWS V14.01,2013-01-08 15:22:00,
2013-01-08 10:27:00,35.6,2.4,30.33,West,270,3.6,5.8,24,0.00,,---,0.00,VWS V14.01,2013-01-08 15:27:00,
2013-01-08 10:32:00,36.3,3.0,30.33,SW,225,4.9,5.4,24,0.00,,---,0.00,VWS V14.01,2013-01-08 15:32:00,
2013-01-08 10:37:00,36.0,0.8,30.33,SW,225,2.7,8.3,22,0.00,,---,0.00,VWS V14.01,2013-01-08 15:37:00,
2013-01-08 10:42:00,36.3,1.1,30.33,SW,225,2.7,8.3,22,0.00,,---,0.00,VWS V14.01,2013-01-08 15:42:00,
2013-01-08 10:47:00,37.0,1.7,30.33,West,270,5.8,8.3,22,0.00,,---,0.00,VWS V14.01,2013-01-08 15:47:00,
2013-01-08 10:52:00,37.0,1.7,30.33,SW,225,4.0,4.0,22,0.00,,---,0.00,VWS V14.01,2013-01-08 15:52:00,
2013-01-08 10:57:00,36.9,1.6,30.33,SW,225,4.9,8.1,22,0.00,,---,0.00,VWS V14.01,2013-01-08 15:57:00,
2013-01-08 11:02:00,37.2,1.9,30.33,SW,225,3.6,5.8,22,0.00,,---,0.00,VWS V14.01,2013-01-08 16:02:00,
2013-01-08 11:07:00,37.9,1.5,30.33,SW,225,4.9,7.6,21,0.00,,---,0.00,VWS V14.01,2013-01-08 16:07:00,
2013-01-08 11:12:00,38.1,1.6,30.33,SSW,202,4.0,4.9,21,0.00,,---,0.00,VWS V14.01,2013-01-08 16:12:00,
2013-01-08 11:17:00,38.5,2.0,30.33,SW,225,7.2,8.3,21,0.00,,---,0.00,VWS V14.01,2013-01-08 16:17:00,
2013-01-08 11:22:00,38.8,2.3,30.33,SW,225,2.2,5.4,21,0.00,,---,0.00,VWS V14.01,2013-01-08 16:22:00,
2013-01-08 11:27:00,39.2,2.6,30.33,WNW,292,3.6,9.6,21,0.00,,---,0.00,VWS V14.01,2013-01-08 16:27:00,
2013-01-08 11:32:00,39.7,3.0,30.33,SSW,202,5.8,6.3,21,0.00,,---,0.00,VWS V14.01,2013-01-08 16:32:00,
2013-01-08 11:37:00,39.9,3.2,30.33,West,270,4.0,6.7,21,0.00,,---,0.00,VWS V14.01,2013-01-08 16:37:00,
2013-01-08 11:42:00,39.9,3.2,30.33,SW,225,5.4,6.3,21,0.00,,---,0.00,VWS V14.01,2013-01-08 16:42:00,
2013-01-08 11:47:00,40.6,3.8,30.33,SW,225,5.4,6.3,21,0.00,,---,0.00,VWS V14.01,2013-01-08 16:47:00,
2013-01-08 11:52:00,41.0,4.1,30.33,West,270,3.1,4.9,21,0.00,,---,0.00,VWS V14.01,2013-01-08 16:52:00,
2013-01-08 11:57:00,40.5,3.6,30.33,West,270,2.7,5.8,21,0.00,,---,0.00,VWS V14.01,2013-01-08 16:57:00,
2013-01-08 12:02:00,40.6,3.8,30.33,West,270,3.6,4.9,21,0.00,,---,0.00,VWS V14.01,2013-01-08 17:02:00,
2013-01-08 12:07:00,42.3,5.1,30.33,SW,225,0.0,4.9,21,0.00,,---,0.00,VWS V14.01,2013-01-08 17:07:00,
2013-01-08 12:12:00,42.6,5.4,30.30,SW,225,2.7,3.6,21,0.00,,---,0.00,VWS V14.01,2013-01-08 17:12:00,
2013-01-08 12:17:00,43.2,4.8,30.30,South,180,3.1,6.3,20,0.00,,---,0.00,VWS V14.01,2013-01-08 17:17:00,
2013-01-08 12:22:00,42.8,4.5,30.30,SW,225,4.9,5.4,20,0.00,,---,0.00,VWS V14.01,2013-01-08 17:22:00,
2013-01-08 12:27:00,42.8,4.5,30.30,SW,225,0.0,5.4,20,0.00,,---,0.00,VWS V14.01,2013-01-08 17:27:00,
2013-01-08 12:32:00,42.3,5.1,30.30,SW,225,2.7,4.0,21,0.00,,---,0.00,VWS V14.01,2013-01-08 17:32:00,
2013-01-08 12:37:00,41.4,4.4,30.30,WSW,248,2.2,4.0,21,0.00,,---,0.00,VWS V14.01,2013-01-08 17:37:00,
2013-01-08 12:42:00,40.5,3.6,30.30,West,270,0.0,3.6,21,0.00,,---,0.00,VWS V14.01,2013-01-08 17:42:00,
2013-01-08 12:47:00,40.3,3.5,30.30,NW,315,0.0,4.5,21,0.00,,---,0.00,VWS V14.01,2013-01-08 17:47:00,
2013-01-08 12:52:00,40.5,3.6,30.30,WNW,292,2.7,2.7,21,0.00,,---,0.00,VWS V14.01,2013-01-08 17:52:00,
2013-01-08 12:57:00,41.0,4.1,30.30,West,270,0.0,5.8,21,0.00,,---,0.00,VWS V14.01,2013-01-08 17:57:00,
2013-01-08 13:02:00,42.3,5.1,30.30,SW,225,4.0,4.0,21,0.00,,---,0.00,VWS V14.01,2013-01-08 18:02:00,
2013-01-08 13:07:00,42.3,5.1,30.30,NW,315,0.0,5.4,21,0.00,,---,0.00,VWS V14.01,2013-01-08 18:07:00,
2013-01-08 13:12:00,42.6,5.4,30.30,SW,225,0.0,3.1,21,0.00,,---,0.00,VWS V14.01,2013-01-08 18:12:00,
2013-01-08 13:17:00,42.1,5.0,30.30,WSW,248,0.0,5.4,21,0.00,,---,0.00,VWS V14.01,2013-01-08 18:17:00,
2013-01-08 13:22:00,41.7,4.7,30.30,WNW,292,2.2,2.7,21,0.00,,---,0.00,VWS V14.01,2013-01-08 18:22:00,
2013-01-08 13:27:00,41.5,4.5,30.30,West,270,0.0,2.7,21,0.00,,---,0.00,VWS V14.01,2013-01-08 18:27:00,
2013-01-08 13:32:00,41.7,4.7,30.30,SW,225,2.2,3.1,21,0.00,,---,0.00,VWS V14.01,2013-01-08 18:32:00,
2013-01-08 13:37:00,41.4,4.4,30.30,SW,225,0.0,3.1,21,0.00,,---,0.00,VWS V14.01,2013-01-08 18:37:00,
2013-01-08 13:42:00,40.8,3.9,30.30,NW,315,0.0,4.0,21,0.00,,---,0.00,VWS V14.01,2013-01-08 18:42:00,
2013-01-08 13:47:00,40.3,3.5,30.30,NW,315,0.0,4.0,21,0.00,,---,0.00,VWS V14.01,2013-01-08 18:47:00,
2013-01-08 13:52:00,40.5,3.6,30.30,West,270,2.7,3.1,21,0.00,,---,0.00,VWS V14.01,2013-01-08 18:52:00,
2013-01-08 13:57:00,40.6,3.8,30.30,WSW,248,5.4,5.4,21,0.00,,---,0.00,VWS V14.01,2013-01-08 18:57:00,
2013-01-08 14:02:00,40.5,3.6,30.30,SW,225,0.0,0.0,21,0.00,,---,0.00,VWS V14.01,2013-01-08 19:02:00,
2013-01-08 14:07:00,41.2,4.2,30.30,SW,225,2.2,3.1,21,0.00,,---,0.00,VWS V14.01,2013-01-08 19:07:00,
2013-01-08 14:12:00,41.5,4.5,30.30,NW,315,3.1,4.9,21,0.00,,---,0.00,VWS V14.01,2013-01-08 19:12:00,
2013-01-08 14:17:00,41.5,4.5,30.30,SW,225,0.0,4.9,21,0.00,,---,0.00,VWS V14.01,2013-01-08 19:17:00,
2013-01-08 14:22:00,41.4,4.4,30.30,SW,225,3.6,4.0,21,0.00,,---,0.00,VWS V14.01,2013-01-08 19:22:00,
2013-01-08 14:27:00,41.2,4.2,30.30,South,180,0.0,5.4,21,0.00,,---,0.00,VWS V14.01,2013-01-08 19:27:00,
2013-01-08 14:32:00,41.2,4.2,30.30,SW,225,2.7,4.0,21,0.00,,---,0.00,VWS V14.01,2013-01-08 19:32:00,
2013-01-08 14:37:00,41.0,4.1,30.30,West,270,2.2,4.9,21,0.00,,---,0.00,VWS V14.01,2013-01-08 19:37:00,
2013-01-08 14:42:00,41.4,4.4,30.30,SW,225,3.6,5.8,21,0.00,,---,0.00,VWS V14.01,2013-01-08 19:42:00,
2013-01-08 14:47:00,41.2,4.2,30.30,SW,225,0.0,7.2,21,0.00,,---,0.00,VWS V14.01,2013-01-08 19:47:00,
2013-01-08 14:52:00,41.2,4.2,30.30,West,270,2.7,4.9,21,0.00,,---,0.00,VWS V14.01,2013-01-08 19:52:00,
2013-01-08 14:57:00,41.5,4.5,30.30,NW,315,4.9,4.9,21,0.00,,---,0.00,VWS V14.01,2013-01-08 19:57:00,
2013-01-08 15:02:00,41.5,4.5,30.30,West,270,2.2,4.9,21,0.00,,---,0.00,VWS V14.01,2013-01-08 20:02:00,
2013-01-08 15:07:00,41.4,4.4,30.30,SW,225,0.0,6.3,21,0.00,,---,0.00,VWS V14.01,2013-01-08 20:07:00,
2013-01-08 15:12:00,41.0,4.1,30.30,West,270,6.3,7.6,21,0.00,,---,0.00,VWS V14.01,2013-01-08 20:12:00,
2013-01-08 15:17:00,40.8,3.9,30.30,West,270,4.0,7.6,21,0.00,,---,0.00,VWS V14.01,2013-01-08 20:17:00,
2013-01-08 15:22:00,40.8,3.9,30.30,West,270,0.0,3.6,21,0.00,,---,0.00,VWS V14.01,2013-01-08 20:22:00,
2013-01-08 15:27:00,40.5,3.6,30.30,SW,225,3.1,8.1,21,0.00,,---,0.00,VWS V14.01,2013-01-08 20:27:00,
2013-01-08 15:32:00,40.3,3.5,30.30,SW,225,3.6,7.6,21,0.00,,---,0.00,VWS V14.01,2013-01-08 20:32:00,
2013-01-08 15:37:00,40.3,3.5,30.30,SW,225,0.0,7.6,21,0.00,,---,0.00,VWS V14.01,2013-01-08 20:37:00,
2013-01-08 15:42:00,40.3,3.5,30.30,South,180,3.6,4.0,21,0.00,,---,0.00,VWS V14.01,2013-01-08 20:42:00,
2013-01-08 15:47:00,39.9,3.2,30.30,SW,225,3.6,5.8,21,0.00,,---,0.00,VWS V14.01,2013-01-08 20:47:00,
2013-01-08 15:52:00,39.7,3.0,30.30,SW,225,3.6,4.0,21,0.00,,---,0.00,VWS V14.01,2013-01-08 20:52:00,
2013-01-08 15:57:00,39.7,3.0,30.30,SW,225,3.6,6.7,21,0.00,,---,0.00,VWS V14.01,2013-01-08 20:57:00,
2013-01-08 16:02:00,39.4,2.7,30.30,SW,225,3.1,4.0,21,0.00,,---,0.00,VWS V14.01,2013-01-08 21:02:00,
2013-01-08 16:07:00,39.4,2.7,30.30,SW,225,0.0,4.0,21,0.00,,---,0.00,VWS V14.01,2013-01-08 21:07:00,
2013-01-08 16:12:00,39.2,2.6,30.30,SW,225,0.0,0.0,21,0.00,,---,0.00,VWS V14.01,2013-01-08 21:12:00,
2013-01-08 16:17:00,39.0,2.4,30.30,SW,225,2.7,2.7,21,0.00,,---,0.00,VWS V14.01,2013-01-08 21:17:00,
2013-01-08 16:22:00,38.8,2.3,30.30,SW,225,0.0,0.0,21,0.00,,---,0.00,VWS V14.01,2013-01-08 21:22:00,
2013-01-08 16:27:00,38.7,2.1,30.30,SW,225,0.0,0.0,21,0.00,,---,0.00,VWS V14.01,2013-01-08 21:27:00,
2013-01-08 16:32:00,38.5,2.0,30.30,SW,225,0.0,3.1,21,0.00,,---,0.00,VWS V14.01,2013-01-08 21:32:00,
2013-01-08 16:37:00,38.1,1.6,30.30,SW,225,0.0,3.1,21,0.00,,---,0.00,VWS V14.01,2013-01-08 21:37:00,
2013-01-08 16:42:00,37.8,1.4,30.30,SW,225,0.0,0.0,21,0.00,,---,0.00,VWS V14.01,2013-01-08 21:42:00,
2013-01-08 16:47:00,37.6,1.2,30.30,SW,225,0.0,0.0,21,0.00,,---,0.00,VWS V14.01,2013-01-08 21:47:00,
2013-01-08 16:52:00,37.2,1.9,30.30,SW,225,0.0,0.0,22,0.00,,---,0.00,VWS V14.01,2013-01-08 21:52:00,
2013-01-08 16:57:00,36.9,1.6,30.30,SW,225,0.0,0.0,22,0.00,,---,0.00,VWS V14.01,2013-01-08 21:57:00,
2013-01-08 17:02:00,36.5,1.3,30.30,SW,225,0.0,0.0,22,0.00,,---,0.00,VWS V14.01,2013-01-08 22:02:00,
2013-01-08 17:07:00,36.1,1.0,30.30,SW,225,0.0,0.0,22,0.00,,---,0.00,VWS V14.01,2013-01-08 22:07:00,
2013-01-08 17:12:00,35.8,0.7,30.30,SW,225,0.0,0.0,22,0.00,,---,0.00,VWS V14.01,2013-01-08 22:12:00,
2013-01-08 17:17:00,35.6,0.5,30.30,SW,225,0.0,0.0,22,0.00,,---,0.00,VWS V14.01,2013-01-08 22:17:00,
2013-01-08 17:22:00,35.4,0.4,30.30,SW,225,0.0,0.0,22,0.00,,---,0.00,VWS V14.01,2013-01-08 22:22:00,
2013-01-08 17:27:00,35.4,0.4,30.30,SW,225,0.0,0.0,22,0.00,,---,0.00,VWS V14.01,2013-01-08 22:27:00,
2013-01-08 17:32:00,35.2,0.2,30.30,South,180,0.0,2.7,22,0.00,,---,0.00,VWS V14.01,2013-01-08 22:32:00,
2013-01-08 17:37:00,35.4,0.4,30.30,SW,225,0.0,2.7,22,0.00,,---,0.00,VWS V14.01,2013-01-08 22:37:00,
2013-01-08 17:42:00,35.8,0.7,30.30,SW,225,0.0,2.2,22,0.00,,---,0.00,VWS V14.01,2013-01-08 22:42:00,
2013-01-08 17:47:00,36.0,0.8,30.30,SW,225,0.0,5.4,22,0.00,,---,0.00,VWS V14.01,2013-01-08 22:47:00,
2013-01-08 17:52:00,36.7,1.4,30.30,SW,225,4.5,4.9,22,0.00,,---,0.00,VWS V14.01,2013-01-08 22:52:00,
2013-01-08 17:57:00,37.2,1.9,30.30,South,180,2.7,6.3,22,0.00,,---,0.00,VWS V14.01,2013-01-08 22:57:00,
2013-01-08 18:02:00,37.4,1.0,30.30,SW,225,4.9,8.3,21,0.00,,---,0.00,VWS V14.01,2013-01-08 23:02:00,
2013-01-08 18:07:00,37.4,1.0,30.30,SW,225,4.5,8.3,21,0.00,,---,0.00,VWS V14.01,2013-01-08 23:07:00,
2013-01-08 18:12:00,37.4,1.0,30.30,SW,225,4.0,4.0,21,0.00,,---,0.00,VWS V14.01,2013-01-08 23:12:00,
2013-01-08 18:17:00,37.2,1.9,30.30,SW,225,2.2,4.0,22,0.00,,---,0.00,VWS V14.01,2013-01-08 23:17:00,
2013-01-08 18:22:00,37.4,1.0,30.30,WSW,248,0.0,5.8,21,0.00,,---,0.00,VWS V14.01,2013-01-08 23:22:00,
2013-01-08 18:27:00,37.4,1.0,30.30,SW,225,2.2,8.1,21,0.00,,---,0.00,VWS V14.01,2013-01-08 23:27:00,
2013-01-08 18:32:00,37.6,1.2,30.30,SSW,202,4.0,7.6,21,0.00,,---,0.00,VWS V14.01,2013-01-08 23:32:00,
2013-01-08 18:37:00,37.6,1.2,30.30,SW,225,3.6,8.3,21,0.00,,---,0.00,VWS V14.01,2013-01-08 23:37:00,
2013-01-08 18:42:00,37.6,1.2,30.30,South,180,5.4,6.3,21,0.00,,---,0.00,VWS V14.01,2013-01-08 23:42:00,
2013-01-08 18:47:00,37.6,1.2,30.30,South,180,3.1,8.3,21,0.00,,---,0.00,VWS V14.01,2013-01-08 23:47:00,
2013-01-08 18:52:00,37.9,1.5,30.30,SW,225,2.2,8.3,21,0.00,,---,0.00,VWS V14.01,2013-01-08 23:52:00,
2013-01-08 18:57:00,37.6,1.2,30.30,South,180,3.6,8.3,21,0.00,,---,0.00,VWS V14.01,2013-01-08 23:57:00,
2013-01-08 19:02:00,37.6,1.2,30.30,SSW,202,3.1,5.8,21,0.00,,---,0.00,VWS V14.01,2013-01-09 00:02:00,
2013-01-08 19:07:00,37.6,1.2,30.30,South,180,5.8,7.6,21,0.00,,---,0.00,VWS V14.01,2013-01-09 00:07:00,
2013-01-08 19:12:00,37.6,1.2,30.30,SW,225,3.1,6.3,21,0.00,,---,0.00,VWS V14.01,2013-01-09 00:12:00,
2013-01-08 19:17:00,37.6,1.2,30.30,SW,225,3.1,9.2,21,0.00,,---,0.00,VWS V14.01,2013-01-09 00:17:00,
2013-01-08 19:22:00,37.6,1.2,30.30,SSW,202,4.5,7.6,21,0.00,,---,0.00,VWS V14.01,2013-01-09 00:22:00,
2013-01-08 19:27:00,37.6,1.2,30.30,SW,225,5.4,8.1,21,0.00,,---,0.00,VWS V14.01,2013-01-09 00:27:00,
2013-01-08 19:32:00,37.4,1.0,30.30,SSW,202,2.7,9.6,21,0.00,,---,0.00,VWS V14.01,2013-01-09 00:32:00,
2013-01-08 19:37:00,37.4,1.0,30.30,West,270,8.1,9.6,21,0.00,,---,0.00,VWS V14.01,2013-01-09 00:37:00,
2013-01-08 19:42:00,37.4,1.0,30.33,SSW,202,7.2,7.2,21,0.00,,---,0.00,VWS V14.01,2013-01-09 00:42:00,
2013-01-08 19:47:00,37.4,1.0,30.33,WSW,248,8.1,8.1,21,0.00,,---,0.00,VWS V14.01,2013-01-09 00:47:00,
2013-01-08 19:52:00,37.4,1.0,30.33,SW,225,3.6,8.3,21,0.00,,---,0.00,VWS V14.01,2013-01-09 00:52:00,
2013-01-08 19:57:00,37.4,1.0,30.30,SW,225,3.1,8.3,21,0.00,,---,0.00,VWS V14.01,2013-01-09 00:57:00,
2013-01-08 20:02:00,37.2,1.9,30.30,SSW,202,2.2,5.4,22,0.00,,---,0.00,VWS V14.01,2013-01-09 01:02:00,
2013-01-08 20:07:00,37.2,1.9,30.30,SW,225,0.0,7.6,22,0.00,,---,0.00,VWS V14.01,2013-01-09 01:07:00,
2013-01-08 20:12:00,37.0,1.7,30.30,SW,225,4.0,7.2,22,0.00,,---,0.00,VWS V14.01,2013-01-09 01:12:00,
2013-01-08 20:17:00,37.0,1.7,30.30,SW,225,6.3,8.3,22,0.00,,---,0.00,VWS V14.01,2013-01-09 01:17:00,
2013-01-08 20:22:00,37.0,1.7,30.30,SW,225,2.7,8.1,22,0.00,,---,0.00,VWS V14.01,2013-01-09 01:22:00,
2013-01-08 20:27:00,37.0,1.7,30.33,SW,225,3.6,8.7,22,0.00,,---,0.00,VWS V14.01,2013-01-09 01:27:00,
2013-01-08 20:32:00,37.0,1.7,30.33,South,180,3.6,6.3,22,0.00,,---,0.00,VWS V14.01,2013-01-09 01:32:00,
2013-01-08 20:37:00,37.2,1.9,30.33,SW,225,4.9,8.3,22,0.00,,---,0.00,VWS V14.01,2013-01-09 01:37:00,
2013-01-08 20:42:00,37.2,1.9,30.33,SW,225,8.1,8.1,22,0.00,,---,0.00,VWS V14.01,2013-01-09 01:42:00,
2013-01-08 20:47:00,37.6,1.2,30.33,SW,225,4.9,10.1,21,0.00,,---,0.00,VWS V14.01,2013-01-09 01:47:00,
2013-01-08 20:52:00,37.4,1.0,30.33,SW,225,7.2,7.6,21,0.00,,---,0.00,VWS V14.01,2013-01-09 01:52:00,
2013-01-08 20:57:00,37.4,1.0,30.33,SW,225,3.6,8.3,21,0.00,,---,0.00,VWS V14.01,2013-01-09 01:57:00,
2013-01-08 21:02:00,37.4,1.0,30.33,South,180,4.0,7.6,21,0.00,,---,0.00,VWS V14.01,2013-01-09 02:02:00,
2013-01-08 21:07:00,37.2,3.8,30.33,SW,225,6.7,7.6,24,0.00,,---,0.00,VWS V14.01,2013-01-09 02:07:00,
2013-01-08 21:12:00,37.2,3.8,30.33,SW,225,3.1,8.7,24,0.00,,---,0.00,VWS V14.01,2013-01-09 02:12:00,
2013-01-08 21:17:00,37.2,3.8,30.33,SW,225,2.7,8.7,24,0.00,,---,0.00,VWS V14.01,2013-01-09 02:17:00,
2013-01-08 21:22:00,37.4,3.9,30.33,SW,225,5.4,8.3,24,0.00,,---,0.00,VWS V14.01,2013-01-09 02:22:00,
2013-01-08 21:27:00,37.4,3.9,30.33,SW,225,2.2,8.3,24,0.00,,---,0.00,VWS V14.01,2013-01-09 02:27:00,
2013-01-08 21:32:00,37.0,3.6,30.33,SW,225,3.1,8.3,24,0.00,,---,0.00,VWS V14.01,2013-01-09 02:32:00,
2013-01-08 21:37:00,36.9,3.5,30.33,WSW,248,8.7,8.7,24,0.00,,---,0.00,VWS V14.01,2013-01-09 02:37:00,
2013-01-08 21:42:00,37.0,3.6,30.33,SW,225,4.0,7.6,24,0.00,,---,0.00,VWS V14.01,2013-01-09 02:42:00,
2013-01-08 21:47:00,36.9,3.5,30.33,SW,225,5.8,7.6,24,0.00,,---,0.00,VWS V14.01,2013-01-09 02:47:00,
2013-01-08 21:52:00,36.9,3.5,30.33,SW,225,5.4,8.1,24,0.00,,---,0.00,VWS V14.01,2013-01-09 02:52:00,
2013-01-08 21:57:00,36.9,3.5,30.30,SW,225,7.2,8.1,24,0.00,,---,0.00,VWS V14.01,2013-01-09 02:57:00,
2013-01-08 22:02:00,36.9,3.5,30.30,SW,225,2.7,7.2,24,0.00,,---,0.00,VWS V14.01,2013-01-09 03:02:00,
2013-01-08 22:07:00,36.7,3.3,30.30,SW,225,3.1,8.1,24,0.00,,---,0.00,VWS V14.01,2013-01-09 03:07:00,
2013-01-08 22:12:00,36.7,3.3,30.30,SW,225,3.6,6.3,24,0.00,,---,0.00,VWS V14.01,2013-01-09 03:12:00,
2013-01-08 22:17:00,36.3,3.0,30.30,SW,225,3.6,6.3,24,0.00,,---,0.00,VWS V14.01,2013-01-09 03:17:00,
2013-01-08 22:22:00,36.1,2.8,30.30,West,270,0.0,3.1,24,0.00,,---,0.00,VWS V14.01,2013-01-09 03:22:00,
2013-01-08 22:27:00,36.1,5.4,30.27,South,180,3.6,7.2,27,0.00,,---,0.00,VWS V14.01,2013-01-09 03:27:00,
2013-01-08 22:32:00,35.8,5.1,30.27,SW,225,2.7,5.8,27,0.00,,---,0.00,VWS V14.01,2013-01-09 03:32:00,
2013-01-08 22:37:00,35.8,5.1,30.27,West,270,2.7,6.3,27,0.00,,---,0.00,VWS V14.01,2013-01-09 03:37:00,
2013-01-08 22:42:00,35.8,5.1,30.27,SW,225,2.7,3.6,27,0.00,,---,0.00,VWS V14.01,2013-01-09 03:42:00,
2013-01-08 22:47:00,36.1,5.4,30.27,SSW,202,2.7,5.8,27,0.00,,---,0.00,VWS V14.01,2013-01-09 03:47:00,
2013-01-08 22:52:00,36.3,5.6,30.27,SSW,202,2.7,6.3,27,0.00,,---,0.00,VWS V14.01,2013-01-09 03:52:00,
2013-01-08 22:57:00,36.7,5.9,30.27,SW,225,3.6,8.3,27,0.00,,---,0.00,VWS V14.01,2013-01-09 03:57:00,
2013-01-08 23:02:00,36.7,5.9,30.27,WSW,248,4.0,7.6,27,0.00,,---,0.00,VWS V14.01,2013-01-09 04:02:00,
2013-01-08 23:07:00,36.9,6.0,30.27,SW,225,2.2,10.1,27,0.00,,---,0.00,VWS V14.01,2013-01-09 04:07:00,
2013-01-08 23:12:00,36.7,5.9,30.27,SW,225,5.4,7.6,27,0.00,,---,0.00,VWS V14.01,2013-01-09 04:12:00,
2013-01-08 23:17:00,36.9,6.0,30.27,South,180,3.6,9.6,27,0.00,,---,0.00,VWS V14.01,2013-01-09 04:17:00,
2013-01-08 23:22:00,37.0,6.2,30.27,SW,225,3.1,8.1,27,0.00,,---,0.00,VWS V14.01,2013-01-09 04:22:00,
2013-01-08 23:27:00,37.0,6.2,30.27,SW,225,4.0,9.6,27,0.00,,---,0.00,VWS V14.01,2013-01-09 04:27:00,
2013-01-08 23:32:00,37.2,6.3,30.27,West,270,4.9,10.1,27,0.00,,---,0.00,VWS V14.01,2013-01-09 04:32:00,
2013-01-08 23:37:00,37.2,6.3,30.27,SW,225,0.0,10.1,27,0.00,,---,0.00,VWS V14.01,2013-01-09 04:37:00,
2013-01-08 23:42:00,37.0,6.2,30.27,SW,225,4.9,6.3,27,0.00,,---,0.00,VWS V14.01,2013-01-09 04:42:00,
2013-01-08 23:47:00,36.9,6.0,30.27,West,270,4.0,8.3,27,0.00,,---,0.00,VWS V14.01,2013-01-09 04:47:00,
2013-01-08 23:52:00,36.9,6.0,30.27,SW,225,3.1,8.7,27,0.00,,---,0.00,VWS V14.01,2013-01-09 04:52:00,
2013-01-08 23:57:00,37.0,6.2,30.27,WSW,248,3.1,8.7,27,0.00,,---,0.00,VWS V14.01,2013-01-09 04:57:00,